• Join FlightAware (Why Join?)
  • Login
  • US Flag 
11:20AM EST


 

Airport Tracker/Info


-or-


 

Live Flight TrackerFlight Track Log ✈ N635B ✈ 16-Aug-2014 ✈ KCHS - KPIE

Flight Track Log - Related Links

Times and Time Zones

All times are in EDT time to prevent confusion due to time zone crossing. See the N635B flight status page for this flight to view local times or setup timezone preferences in your user account.

Time Position Orientation Groundspeed Altitude Reporting Facility
EDT Latitude Longitude Course Direction KTS MPH feet Rate Location/Type
03:26PM 32.8428 -80.0739 215° Southwest 173 199 1,900  Level Jacksonville Center
03:27PM 32.7892 -80.1028 204° Southwest 173 199 3,600 1,860 Climbing Jacksonville Center
03:28PM 32.7519 -80.1211 203° Southwest 173 199 5,700 1,800 Climbing Jacksonville Center
03:30PM 32.6675 -80.1731 207° Southwest 178 205 9,100 1,620 Climbing Jacksonville Center
03:31PM 32.5880 -80.2851 215° Southwest  Level FlightAware Approximate
03:31PM 32.6264 -80.2039 212° Southwest 178 205 10,600  Level Jacksonville Center
03:32PM 32.5875 -80.2347 214° Southwest 178 205 12,300 1,500 Climbing Jacksonville Center
03:33PM 32.5483 -80.2656 214° Southwest 178 205 13,700 1,380 Climbing Jacksonville Center
03:34PM 32.5031 -80.2964 210° Southwest 178 205 15,100 1,200 Climbing Jacksonville Center
03:35PM 32.4600 -80.3294 213° Southwest 183 211 16,100 1,140 Climbing Jacksonville Center
03:36PM 32.4169 -80.3628 213° Southwest 183 211 17,400 1,020 Climbing Jacksonville Center
03:37PM 32.3717 -80.3961 212° Southwest 188 216 18,200 900 Climbing Jacksonville Center
03:38PM 32.3264 -80.4317 214° Southwest 188 216 19,200 960 Climbing Jacksonville Center
03:39PM 32.2831 -80.4647 213° Southwest 194 223 20,200 900 Climbing Jacksonville Center
03:40PM 32.2358 -80.4981 211° Southwest 194 223 21,100 660 Climbing Jacksonville Center
03:41PM 32.1906 -80.5333 213° Southwest 199 229 21,600 420 Climbing Jacksonville Center
03:42PM 32.1408 -80.5642 208° Southwest 199 229 22,000 180 Climbing Jacksonville Center
03:43PM 32.0897 -80.6097 217° Southwest 219 252 22,000  Level Jacksonville Center
03:44PM 32.0403 -80.6500 215° Southwest 236 272 22,000  Level Jacksonville Center
03:45PM 31.9806 -80.6981 214° Southwest 236 272 22,000  Level Jacksonville Center
03:46PM 31.9269 -80.7433 216° Southwest 241 277 22,100  Climbing Jacksonville Center
03:47PM 31.8756 -80.7814 212° Southwest 241 277 22,000 -60 Descending Jacksonville Center
03:48PM 31.8114 -80.8219 208° Southwest 241 277 22,000  Level Jacksonville Center
03:49PM 31.7533 -80.8428 197° South 247 284 22,000  Level Jacksonville Center
03:50PM 31.6828 -80.8661 196° South 242 278 22,000  Level Jacksonville Center
03:51PM 31.6142 -80.8825 191° South 242 278 22,000 -60 Level Jacksonville Center
03:52PM 31.5558 -80.9008 195° South 237 273 21,900  Descending Jacksonville Center
03:53PM 31.4853 -80.9267 197° South 242 278 22,000  Climbing Jacksonville Center
03:54PM 31.4294 -80.9692 213° Southwest 237 273 22,000  Level Jacksonville Center
03:55PM 31.3800 -81.0092 215° Southwest 237 273 22,000  Level Jacksonville Center
03:56PM 31.3181 -81.0542 212° Southwest 243 280 22,000  Level Jacksonville Center
03:57PM 31.2644 -81.0989 215° Southwest 242 278 22,000  Level Jacksonville Center
03:58PM 31.2086 -81.1436 214° Southwest 242 278 22,000  Level Jacksonville Center
03:59PM 31.1550 -81.1883 216° Southwest 242 278 22,000  Level Jacksonville Center
04:00PM 31.0992 -81.2331 214° Southwest 242 278 22,000  Level Jacksonville Center
04:01PM 31.0558 -81.2653 212° Southwest 242 278 22,000  Level Jacksonville Center
04:02PM 30.9875 -81.3175 213° Southwest 242 278 22,000  Level Jacksonville Center
04:03PM 30.9317 -81.3644 216° Southwest 242 278 22,000  Level Jacksonville Center
04:04PM 30.8758 -81.4064 213° Southwest 242 278 22,000  Level Jacksonville Center
04:05PM 30.8200 -81.4483 213° Southwest 242 278 22,000  Level Jacksonville Center
04:06PM 30.7619 -81.4903 212° Southwest 242 278 22,000  Level Jacksonville Center
04:07PM 30.7061 -81.5300 211° Southwest 242 278 22,000  Level Jacksonville Center
04:08PM 30.6500 -81.5742 214° Southwest 242 278 22,000  Level Jacksonville Center
04:09PM 30.5922 -81.6158 212° Southwest 242 278 22,000  Level Jacksonville Center
04:10PM 30.5342 -81.6578 212° Southwest 242 278 22,000  Level Jacksonville Center
04:11PM 30.4781 -81.6969 211° Southwest 242 278 22,000  Level Jacksonville Center
04:12PM 30.4261 -81.7314 210° Southwest 247 284 22,000  Level Jacksonville Center
04:13PM 30.3681 -81.7756 213° Southwest 247 284 22,000  Level Jacksonville Center
04:14PM 30.3100 -81.8194 213° Southwest 247 284 22,000  Level Jacksonville Center
04:15PM 30.2539 -81.8608 213° Southwest 247 284 22,000  Level Jacksonville Center
04:16PM 30.1981 -81.9000 211° Southwest 247 284 22,000  Level Jacksonville Center
04:17PM 30.1397 -81.9414 212° Southwest 247 284 22,000  Level Jacksonville Center
04:18PM 30.0817 -81.9828 212° Southwest 247 284 22,000  Level Jacksonville Center
04:19PM 30.0256 -82.0242 213° Southwest 247 284 22,000  Level Jacksonville Center
04:20PM 29.9675 -82.0678 213° Southwest 247 284 22,000  Level Jacksonville Center
04:21PM 29.9092 -82.1092 212° Southwest 247 284 22,000  Level Jacksonville Center
04:22PM 29.8511 -82.1503 212° Southwest 247 284 22,000  Level Jacksonville Center
04:23PM 29.7947 -82.1914 212° Southwest 247 284 22,000 -60 Level Jacksonville Center
04:24PM 29.7261 -82.2039 189° South 247 284 21,900 -60 Descending Jacksonville Center
04:25PM 29.6592 -82.2042 180° South 247 284 21,900 -360 Level Jacksonville Center
04:26PM 29.5861 -82.2047 180° South 254 292 21,200 -840 Descending Jacksonville Center
04:27PM 29.5089 -82.2078 182° South 266 306 20,300 -900 Descending Jacksonville Center
04:28PM 29.4317 -82.2131 183° South 279 321 19,500 -660 Descending Jacksonville Center
04:29PM 29.3544 -82.2183 183° South 279 321 19,000 -300 Descending Jacksonville Center
04:30PM 29.2772 -82.2211 182° South 272 313 19,000  Level Jacksonville Center
04:31PM 29.2083 -82.2242 182° South 259 298 19,000 -120 Level Jacksonville Center
04:32PM 29.1394 -82.2222 179° South 254 292 18,800 -420 Descending Jacksonville Center
04:33PM 29.0664 -82.2250 182° South 254 292 18,200 -840 Descending Jacksonville Center
04:34PM 28.9892 -82.2303 183° South 260 299 17,200 -1,620 Descending Jacksonville Center
04:36PM 28.8139 -82.2456 184° South 292 336 13,100 -1,920 Descending Miami Center
04:37PM 28.7356 -82.2506 183° South 289 333 11,100 -1,020 Descending Miami Center
04:38PM 28.6653 -82.2514 181° South 262 302 11,100 -240 Level Miami Center
04:39PM 28.5967 -82.2517 180° South 252 290 10,700 -480 Descending Miami Center
04:40PM 28.5497 -82.3022 223° Southwest 234 269 10,200 -420 Descending Miami Center
04:41PM 28.5094 -82.3808 240° Southwest 240 276 9,900 -240 Descending Miami Center
04:42PM 28.4833 -82.4500 247° West 225 259 9,700 -540 Descending Tampa TRACON
04:43PM 28.4500 -82.5167 240° Southwest 246 283 8,800 -900 Descending Tampa TRACON
04:44PM 28.4000 -82.5833 230° Southwest 249 287 7,900 -960 Descending Tampa TRACON
04:45PM 28.3667 -82.6500 240° Southwest 241 277 6,900 -960 Descending Tampa TRACON
04:46PM 28.3333 -82.7167 240° Southwest 238 274 5,900 -1,020 Descending Tampa TRACON
04:47PM 28.2833 -82.7500 210° Southwest 255 293 4,800 -900 Descending Tampa TRACON
04:48PM 28.2167 -82.7333 168° South 239 275 4,100 -900 Descending Tampa TRACON
04:49PM 28.1667 -82.7333 180° South 225 259 3,200 -780 Descending Tampa TRACON
04:50PM 28.1000 -82.7167 168° South 198 228 2,700 -720 Descending Tampa TRACON
04:51PM 28.0500 -82.7167 180° South 174 200 1,800 -660 Descending Tampa TRACON
04:52PM 28.0000 -82.7000 164° South 171 197 1,400 -480 Descending Tampa TRACON
04:53PM 27.9667 -82.7000 180° South 145 167 900 -660 Descending Tampa TRACON
04:54PM 27.9333 -82.7000 180° South 107 123 200 -720 Descending Tampa TRACON
04:56PM 27.9100 -82.6875 North  Level Estimated